K7WBM Weather Reports


Display with metric or nautical units.
time (UTC)temp
F
wind
direction
speed
MPH
gust
MPH
rain 1hr
in
rain 24hr
in
rain mn
in
humidity
%
barometer
mb
20260504043045 56 0 0.0 1.0 0.00 0.00 0.00 52 1010.4
20260504041537 57 0 0.0 1.0 0.00 0.00 0.00 51 1010.1
20260504040038 57 0 0.0 2.0 0.00 0.00 0.00 51 1010.1
20260504034537 56 0 0.0 0.0 0.00 0.00 0.00 52 1010.0
20260504033038 57 0 0.0 0.0 0.00 0.00 0.00 50 1009.9
20260504031540 59 0 0.0 1.0 0.00 0.00 0.00 48 1010.0
20260504030040 59 295 0.0 1.0 0.00 0.00 0.00 47 1009.9
20260504024536 60 0 0.0 2.0 0.00 0.00 0.00 47 1009.9
20260504023041 60 294 0.0 4.0 0.00 0.00 0.00 47 1009.9
20260504021537 61 313 0.0 5.0 0.00 0.00 0.00 47 1010.2
20260504020036 62 308 1.0 5.0 0.00 0.00 0.00 46 1010.1
20260504014540 61 293 2.0 6.0 0.00 0.00 0.00 47 1010.2
20260504013044 62 0 1.0 7.0 0.00 0.00 0.00 46 1010.6
20260504011539 64 106 1.0 16.0 0.00 0.00 0.00 43 1010.8
20260504010041 63 277 3.0 10.0 0.00 0.00 0.00 41 1010.4
20260504004538 64 290 2.0 10.0 0.00 0.00 0.00 41 1010.3
20260504003038 65 299 3.0 12.0 0.00 0.00 0.00 40 1010.3
20260504001540 66 281 4.0 10.0 0.00 0.00 0.00 39 1010.1
20260504000042 66 291 5.0 12.0 0.00 0.00 0.00 40 1009.5
20260503234539 66 0 5.0 19.0 0.00 0.00 0.00 42 1009.2
20260503233041 66 247 6.0 21.0 0.00 0.00 0.00 40 1009.3
20260503231537 68 30 5.0 14.0 0.00 0.00 0.00 39 1009.0
20260503230037 68 220 5.0 15.0 0.00 0.00 0.00 37 1008.4
20260503224536 71 73 1.0 11.0 0.00 0.00 0.00 31 1008.2
20260503223036 71 125 3.0 8.0 0.00 0.00 0.00 30 1008.1
20260503221538 70 0 4.0 12.0 0.00 0.00 0.00 30 1008.2
20260503220039 75 240 4.0 12.0 0.00 0.00 0.00 26 1008.4
20260503214536 76 125 0.0 5.0 0.00 0.00 0.00 20 1007.8
20260503213037 78 340 0.0 5.0 0.00 0.00 0.00 18 1007.8
20260503211538 78 0 0.0 5.0 0.00 0.00 0.00 21 1007.8
20260503210036 76 0 2.0 8.0 0.00 0.00 0.00 27 1007.9
20260503204537 75 60 4.0 8.0 0.00 0.00 0.00 24 1007.9
20260503203041 76 0 0.0 5.0 0.00 0.00 0.00 22 1008.2
20260503201538 77 0 1.0 3.0 0.00 0.00 0.00 21 1008.5
20260503200037 77 0 0.0 3.0 0.00 0.00 0.00 22 1009.0
20260503194537 76 264 1.0 3.0 0.00 0.00 0.00 22 1009.3
20260503193040 75 0 0.0 2.0 0.00 0.00 0.00 26 1009.6
20260503191539 74 108 0.0 4.0 0.00 0.00 0.00 29 1009.9
20260503190037 74 0 0.0 4.0 0.00 0.00 0.00 26 1010.2
20260503184539 73 153 0.0 3.0 0.00 0.00 0.00 28 1010.4
20260503183037 72 110 0.0 3.0 0.00 0.00 0.00 30 1010.6
20260503181536 72 97 1.0 4.0 0.00 0.00 0.00 33 1010.8
20260503180045 73 0 0.0 2.0 0.00 0.00 0.00 31 1011.0
20260503174542 72 67 0.0 2.0 0.00 0.00 0.00 29 1011.2
20260503173046 71 0 0.0 2.0 0.00 0.00 0.00 32 1011.4
20260503171537 71 80 0.0 2.0 0.00 0.00 0.00 32 1011.3
20260503081535 58 347 2.0 3.0 0.00 0.00 0.00 52 1013.1
20260503071543 60 0 0.0 0.0 0.00 0.00 0.00 46 1013.3
20260503060106 63 293 3.0 7.0 0.00 0.00 0.00 41 1012.5
20260503054540 63 330 3.0 7.0 0.00 0.00 0.00 40 1012.5
20260503053038 65 0 3.0 10.0 0.00 0.00 0.00 37 1012.4
20260503051536 65 290 2.0 7.0 0.00 0.00 0.00 36 1012.7
20260503050036 66 334 2.0 11.0 0.00 0.00 0.00 36 1012.8
20260503044537 66 269 3.0 11.0 0.00 0.00 0.00 33 1012.8